Theta_e
323 317 316 309 297 295 291 294 297 299 298 300 302 300 298 299 298 295 316 322 335 339 344 348 351 354 354 354 353 353 352 351 350 350 349 348 348 348 347 347 347 344 342 341 340 340 338 334 334
314 318 310 303 293 288 289 295 297 299 301 301 301 300 299 298 307 312 314 323 336 340 343 346 348 353 354 353 352 352 352 351 351 350 350 348 347 345 345 347 346 344 341 338 338 336 333 331 331
316 316 303 297 291 288 289 294 295 299 301 300 299 301 300 302 307 313 319 325 329 339 342 346 347 352 352 352 351 351 352 352 353 351 348 345 344 343 341 341 341 341 340 336 333 331 329 328 326
310 307 301 292 290 293 292 293 298 298 300 301 299 297 302 307 309 316 323 325 324 337 341 344 347 351 352 350 351 351 351 351 351 349 346 344 342 341 339 339 340 338 337 334 330 328 326 323 321
308 301 292 291 291 293 295 299 299 298 298 299 300 297 299 308 314 320 323 325 322 328 338 343 346 349 350 350 350 350 350 350 349 349 347 344 340 337 335 336 338 337 334 330 328 325 322 321 319
300 297 290 288 291 295 296 300 298 298 299 299 297 297 299 307 308 315 322 322 323 326 338 343 341 344 346 348 349 349 349 350 350 349 347 345 341 338 335 334 335 334 332 327 326 323 321 319 317
300 295 291 291 292 295 297 299 296 295 296 297 299 295 300 302 307 312 319 321 323 326 336 339 342 342 340 343 344 345 346 347 348 348 345 343 340 338 334 333 333 333 329 326 325 323 320 318 315
300 296 291 291 291 293 298 298 300 297 298 301 300 294 298 304 310 312 313 317 320 323 328 334 337 339 340 341 337 339 342 342 344 343 339 335 333 333 332 329 333 330 327 326 324 322 320 317 312
302 292 289 291 292 294 298 297 300 300 297 298 301 300 302 306 310 310 311 313 316 321 325 327 331 334 337 337 336 334 336 337 337 336 331 327 326 327 326 325 329 329 327 326 323 321 318 314 309
297 291 293 296 293 295 297 295 295 295 296 296 297 301 304 307 306 307 308 310 312 316 321 325 327 330 333 338 335 334 334 334 333 330 328 325 323 323 323 320 325 327 327 326 323 320 317 309 297
299 294 297 299 300 299 299 298 298 295 294 297 297 299 300 304 304 305 306 309 311 315 319 324 326 328 331 333 330 333 334 330 328 326 327 326 322 321 319 315 317 316 318 315 315 311 305 302 298
294 300 300 301 301 299 298 299 298 297 300 301 300 301 301 300 300 303 303 304 305 312 318 322 325 327 326 329 329 331 331 329 327 327 327 326 323 318 313 312 312 311 309 308 305 303 300 297 296
294 296 299 300 300 299 299 297 298 298 302 302 302 302 300 300 300 300 303 304 305 305 313 319 323 325 327 325 324 328 330 330 329 329 329 327 324 320 311 310 311 309 307 306 303 301 296 296 295
296 297 297 298 299 298 296 295 297 299 299 299 299 298 298 298 299 299 300 302 302 305 306 315 322 323 325 325 323 322 323 324 323 323 324 327 325 319 311 309 309 309 307 305 302 298 295 294 294
297 293 295 296 296 296 296 292 295 299 298 298 298 296 298 299 300 299 300 300 301 301 305 309 319 321 322 322 322 321 321 322 321 321 321 321 323 317 311 308 308 308 306 304 299 295 295 294 294
293 290 287 295 296 296 294 288 296 298 296 297 298 296 297 298 298 298 299 299 299 300 301 305 315 318 318 319 320 321 320 318 319 319 318 319 318 315 310 308 307 307 304 301 296 294 293 292 292
288 284 287 291 297 294 292 288 296 298 297 295 295 295 296 296 296 297 297 297 298 299 300 301 306 313 316 316 317 318 319 318 317 317 317 317 317 313 310 307 306 305 301 297 295 292 292 290 290
285 284 288 287 293 294 291 291 294 296 296 295 294 293 294 293 293 295 296 296 296 297 298 299 301 303 309 311 312 312 313 314 314 315 317 318 317 314 308 306 304 303 298 295 293 292 291 290 290
289 287 286 289 294 290 290 290 293 296 293 293 292 293 292 292 293 294 294 294 295 295 296 297 298 298 300 303 305 306 307 309 310 311 312 314 315 314 308 303 302 300 297 295 293 291 290 290 289
289 287 286 290 293 290 289 289 293 294 292 292 292 291 291 291 291 292 292 292 292 292 293 294 295 297 298 299 300 302 302 301 305 307 309 310 311 311 307 303 300 298 295 293 292 291 289 289 288
289 287 287 288 289 290 286 285 288 291 292 292 292 291 291 289 289 290 290 290 291 290 290 292 293 294 295 297 299 298 299 298 297 297 302 305 306 306 307 304 299 297 295 293 291 291 290 288 288
286 291 290 289 284 280 286 279 286 288 288 289 289 288 288 288 289 290 289 289 289 289 290 291 292 292 294 294 294 294 293 293 294 295 296 299 301 302 302 301 299 296 294 292 291 292 290 289 288
288 290 288 287 284 281 283 279 284 288 286 287 287 288 288 288 288 288 289 290 289 289 288 289 289 291 291 292 292 291 291 292 292 293 293 294 296 298 299 299 298 297 295 293 291 290 289 289 289
291 288 287 285 283 277 283 283 283 285 287 287 288 288 288 287 287 288 289 289 288 288 287 288 288 288 289 290 290 290 289 289 289 289 290 291 292 294 294 296 296 296 295 293 291 290 289 290 290
289 284 279 277 276 278 285 283 286 287 289 289 287 286 286 286 286 286 286 286 287 286 286 287 287 286 288 288 288 288 288 288 288 288 288 288 289 289 290 290 291 292 293 293 292 290 289 288 289
286 286 280 272 275 277 284 280 286 288 289 289 288 287 286 286 286 285 286 286 286 286 285 285 285 285 286 286 287 287 287 287 287 287 287 286 287 288 289 289 289 289 291 292 291 289 288 288 288
286 284 288 281 283 280 281 285 288 288 287 286 285 285 284 285 285 285 285 285 285 285 285 285 285 285 285 285 285 286 286 287 286 285 286 285 285 287 287 287 287 288 288 288 289 287 286 287 287
287 288 282 281 272 273 278 279 281 284 285 285 284 284 284 284 285 285 285 285 285 284 283 285 284 283 284 285 284 284 284 285 285 284 284 283 284 285 284 284 285 286 286 287 286 286 286 285 286
284 283 284 286 283 277 271 278 287 287 286 283 283 285 285 285 284 285 285 284 284 284 283 283 282 283 283 283 284 284 283 283 284 283 283 283 283 283 283 284 283 284 284 284 284 284 285 285 285
288 286 285 278 277 278 279 280 288 286 285 286 285 286 285 286 284 283 284 284 284 283 283 281 282 282 282 282 283 282 283 282 283 284 283 282 282 282 281 281 281 282 283 283 283 282 283 283 284
Wind_Speed
7 8 1 5 6 6 4 2 3 5 3 1 0 3 3 2 3 4 3 7 11 13 13 13 14 15 16 15 15 15 15 14 14 14 14 12 10 9 9 10 11 9 8 7 8 8 8 8 8
5 5 5 2 5 4 5 3 4 4 4 1 1 1 2 2 3 4 4 6 11 13 12 13 13 15 15 15 15 14 14 14 15 15 15 13 11 9 8 9 9 11 9 5 6 7 7 7 8
4 0 4 4 3 2 2 3 2 2 4 2 2 0 1 2 3 7 4 8 10 9 12 10 14 16 15 14 14 14 14 13 14 13 14 12 11 10 8 6 7 7 8 5 6 6 7 7 6
3 5 5 5 3 4 3 1 3 2 2 3 2 4 4 3 3 6 7 7 8 9 11 12 12 13 15 15 14 13 12 13 14 14 14 13 11 10 9 6 6 7 6 6 5 6 6 6 5
4 3 3 1 5 3 4 4 3 1 3 3 4 3 4 3 5 8 8 7 7 8 8 12 15 13 13 13 15 14 12 11 14 14 14 14 13 9 6 6 7 7 7 6 6 6 5 6 5
4 3 4 1 5 5 2 4 2 1 3 3 2 1 1 2 3 5 8 8 7 8 8 11 16 14 13 14 14 13 13 11 11 14 15 14 14 15 9 6 8 8 7 7 7 6 6 5 5
2 4 3 3 5 6 1 0 3 1 4 1 1 0 1 2 2 6 7 6 7 8 8 8 11 13 14 14 13 13 12 12 11 14 14 14 12 13 9 6 9 10 9 9 9 8 7 6 5
4 4 3 3 2 5 4 2 4 2 5 1 1 2 4 6 8 6 5 6 6 6 8 8 9 9 9 9 13 13 12 11 10 10 11 10 10 10 9 7 6 8 8 9 8 8 7 6 4
3 5 2 4 5 6 6 5 5 3 2 2 4 5 6 5 6 5 3 2 3 4 7 7 8 7 8 6 7 10 12 12 10 11 11 9 5 7 9 7 8 8 9 10 10 9 7 5 3
5 4 6 3 1 3 4 1 3 4 7 8 5 6 3 5 2 7 6 7 7 7 6 7 8 8 8 8 7 7 6 5 5 6 7 5 6 6 7 8 10 9 8 9 10 9 9 6 2
5 6 4 7 5 3 5 8 5 4 6 10 10 7 3 6 8 9 9 9 11 10 5 9 9 8 10 7 5 4 4 4 4 7 8 6 5 4 4 4 3 3 7 4 6 5 3 3 2
3 8 7 5 4 4 5 2 9 5 13 10 12 8 7 8 9 11 10 9 7 9 12 10 10 10 9 6 6 6 5 5 5 6 8 7 4 4 4 4 5 5 4 5 4 3 3 3 3
4 4 4 7 8 8 5 6 7 11 16 11 13 13 12 10 10 8 10 9 10 9 9 11 9 9 9 8 5 6 7 7 7 7 7 6 6 5 4 4 5 5 4 5 5 4 4 4 3
3 3 6 6 11 7 6 8 6 11 6 9 8 9 7 8 8 7 7 7 7 9 10 10 12 9 8 8 7 5 5 6 5 5 6 8 6 6 5 5 5 4 5 4 5 5 5 4 3
3 5 8 11 6 7 6 4 9 12 8 9 11 7 8 13 15 16 14 11 12 6 6 8 10 9 9 8 6 4 4 5 5 4 6 7 7 7 7 5 5 5 5 7 5 4 4 3 2
5 1 4 6 3 3 3 7 9 10 7 12 13 10 9 13 13 13 13 14 16 15 14 5 4 7 7 7 5 4 4 3 4 4 4 7 7 8 7 5 5 5 5 5 5 4 4 4 4
3 3 4 9 4 3 3 7 11 10 9 11 8 7 11 12 16 15 16 16 15 15 16 16 8 3 6 5 4 4 6 4 3 3 4 6 6 7 6 5 5 6 5 4 5 2 3 3 3
5 4 4 5 6 8 7 9 9 11 11 10 6 10 13 14 14 13 16 16 15 16 16 15 13 11 7 4 4 3 3 1 2 3 4 6 5 7 6 4 5 5 4 4 3 3 2 3 4
4 4 5 5 8 4 7 7 14 17 5 10 8 14 13 13 9 13 15 15 16 17 16 16 16 13 10 5 4 3 2 2 2 2 1 4 4 6 6 4 5 5 6 6 5 3 5 3 3
2 4 7 5 3 1 6 12 15 12 7 10 13 11 9 9 12 15 16 17 17 15 15 16 15 15 10 5 3 3 3 3 2 3 4 3 1 3 5 5 5 6 5 6 6 5 3 2 5
4 5 4 8 3 5 3 7 5 5 11 14 12 11 10 10 12 13 15 14 13 16 15 16 15 14 13 11 5 4 4 4 5 5 4 4 3 2 2 4 4 4 4 6 6 6 7 5 4
5 6 7 5 3 4 3 6 8 8 7 7 8 8 8 10 11 11 11 13 13 12 11 13 14 15 14 15 10 11 6 5 4 3 4 5 6 5 3 1 2 3 3 4 5 5 5 5 6
7 3 1 2 3 2 4 2 8 9 3 5 5 9 9 8 9 10 9 9 9 7 10 10 12 14 14 15 13 9 10 6 4 6 8 8 6 7 5 3 3 3 2 4 5 4 6 4 5
4 3 4 2 3 3 8 7 5 5 8 7 6 8 9 8 8 8 7 6 7 7 8 11 13 14 14 13 14 14 14 10 9 9 8 7 6 6 10 8 5 4 3 4 5 6 7 6 7
4 4 3 4 1 7 2 0 7 4 7 13 13 9 7 7 7 7 8 8 8 9 9 10 11 13 12 12 13 12 10 10 10 9 7 8 7 5 9 8 7 6 6 5 4 5 6 6 6
4 6 5 6 3 4 6 5 4 8 15 15 11 8 7 7 6 6 6 6 6 7 8 8 8 8 7 9 10 9 9 6 6 6 7 7 7 6 8 8 7 7 7 7 5 3 4 5 6
4 4 4 5 0 1 5 1 5 7 11 11 10 8 7 7 6 6 6 6 6 6 6 6 6 6 8 8 6 7 6 7 6 8 7 7 7 9 9 8 8 8 8 7 7 4 6 5 6
2 3 2 3 2 6 5 5 5 6 10 8 7 7 6 5 6 6 6 6 4 5 6 7 7 7 6 6 6 5 6 6 4 3 5 4 4 6 9 9 9 10 9 8 6 5 6 6 5
1 2 1 3 5 5 3 6 6 8 11 10 7 7 8 8 7 6 5 6 7 5 5 5 4 2 4 6 6 6 6 6 6 6 6 6 6 5 6 7 7 7 8 8 7 7 7 6 7
5 5 5 4 4 3 2 8 5 12 11 10 10 12 7 7 7 7 6 6 5 4 2 3 3 2 2 1 1 2 4 4 5 6 7 7 8 9 10 10 7 6 6 7 7 8 7 6 8
Wind_Direction
312 293 122 35 51 65 302 307 96 40 43 143 27 102 206 230 205 211 247 186 131 151 160 161 164 163 157 153 148 147 149 152 154 152 144 137 122 111 138 130 121 104 93 89 82 82 77 66 61
319 319 43 75 84 69 289 134 118 152 174 111 306 14 357 325 108 115 123 201 141 150 160 162 164 164 160 156 154 155 159 162 164 163 139 130 125 124 106 107 117 116 103 97 94 88 80 70 62
308 53 73 98 117 155 177 36 83 37 138 120 4 314 221 147 121 156 225 157 125 150 158 165 164 164 166 163 163 163 167 172 167 165 134 143 149 141 133 126 120 132 134 136 118 110 96 81 64
14 10 16 85 234 266 126 106 113 43 49 100 120 321 316 348 122 160 153 147 130 152 159 156 169 172 170 169 168 171 181 181 158 152 153 160 158 148 144 135 157 146 147 139 125 111 103 88 77
31 65 48 355 282 266 74 99 79 38 284 185 144 280 293 34 126 134 144 152 151 151 157 161 169 176 176 175 172 173 179 184 163 161 165 166 160 141 170 162 167 160 157 142 129 113 99 91 84
9 90 42 310 295 301 67 112 85 333 296 208 139 94 295 135 133 188 153 166 164 159 154 167 172 175 177 179 180 181 183 182 175 170 172 173 160 143 165 176 182 176 164 153 137 126 120 112 96
97 73 224 285 286 335 111 53 78 327 360 37 255 93 326 235 196 173 168 178 170 167 151 166 174 181 179 180 181 183 187 189 192 187 177 173 168 153 178 189 184 175 169 165 153 146 143 128 105
94 90 304 279 292 274 193 136 142 95 273 300 90 264 246 213 174 154 164 181 206 185 166 171 176 180 186 186 181 183 186 187 192 195 175 166 160 149 159 185 190 181 179 167 159 156 148 135 118
56 57 271 259 24 314 351 19 341 327 308 313 218 205 240 139 138 131 165 212 225 216 199 167 176 183 185 185 188 190 188 184 187 180 166 155 152 148 151 165 189 189 189 171 168 166 151 134 132
100 119 236 181 151 306 285 106 311 346 328 285 302 295 141 138 179 174 205 218 209 218 208 197 174 179 178 195 186 192 189 186 176 170 166 161 160 158 154 171 187 188 180 174 176 172 155 146 169
186 194 222 294 327 349 300 325 325 352 291 259 266 258 269 192 211 214 220 211 210 209 197 194 189 174 179 188 169 182 191 180 175 170 166 166 164 165 158 162 172 169 157 159 168 152 148 188 210
189 230 234 259 298 314 274 277 301 210 248 253 271 260 283 270 231 231 230 221 214 204 212 199 191 181 179 175 170 173 175 171 174 177 171 165 165 168 162 164 166 162 160 158 151 158 190 231 193
221 247 300 310 297 271 287 262 253 273 271 273 279 281 271 276 267 267 233 227 224 220 209 203 186 187 186 180 165 172 178 178 179 178 176 164 165 170 161 168 163 165 161 163 169 177 195 205 191
305 317 283 274 263 263 239 273 157 273 294 306 312 305 304 294 287 317 290 263 253 219 200 189 188 185 174 181 174 170 168 174 178 188 171 181 164 159 169 167 175 174 174 172 167 176 181 196 186
324 328 315 267 259 230 137 285 230 252 307 286 292 303 326 9 50 29 25 34 6 330 288 183 184 175 168 170 170 159 175 167 173 183 184 178 172 162 168 174 181 185 179 167 157 170 159 170 193
314 34 316 284 34 291 77 258 276 285 295 303 303 340 8 46 42 26 27 23 10 12 18 354 144 165 157 158 154 151 168 158 185 177 174 174 161 159 167 173 186 182 167 159 162 163 166 184 181
313 239 226 322 3 141 172 236 254 278 287 278 322 352 81 54 37 27 25 21 19 16 16 21 21 131 151 133 142 154 157 154 178 177 172 182 169 168 165 171 185 171 165 167 165 164 148 169 191
220 254 295 277 302 344 303 266 268 272 272 290 258 80 68 56 38 29 32 27 25 23 21 29 37 30 40 65 70 57 51 107 133 164 178 178 178 172 163 167 176 163 158 168 168 152 187 169 183
261 231 239 250 275 336 288 299 297 276 309 308 51 86 79 63 48 40 35 29 28 28 33 24 30 23 37 28 27 39 73 26 32 40 142 176 183 177 162 168 168 160 172 178 175 143 183 235 155
257 277 277 293 273 327 302 293 270 326 54 84 84 76 79 74 49 40 34 29 26 26 24 30 29 22 24 34 32 34 48 49 37 9 24 46 148 193 171 172 184 170 149 171 176 161 154 200 190
255 227 224 225 288 291 287 297 275 45 81 79 72 82 70 67 61 46 38 28 27 29 23 23 24 30 26 10 21 34 34 27 21 10 352 1 81 148 194 187 177 184 173 190 186 177 172 191 230
249 232 220 234 82 224 80 281 286 141 104 90 98 86 81 71 66 60 49 40 34 27 28 32 30 28 25 25 36 42 45 41 2 355 0 18 27 35 42 309 243 208 195 197 202 199 188 147 199
217 53 258 207 200 16 270 144 261 117 163 141 117 91 75 70 76 70 59 50 36 31 31 36 40 37 34 35 33 41 36 21 5 15 16 1 8 19 11 16 349 284 223 225 213 207 213 198 186
124 44 310 67 110 286 224 184 273 197 181 135 103 83 79 71 56 56 57 57 45 29 35 37 35 32 30 32 35 34 36 28 29 18 16 359 3 14 7 343 322 289 266 231 223 224 221 220 229
82 76 321 1 33 226 285 200 252 21 96 131 121 105 93 87 77 58 48 45 47 39 38 42 37 38 29 26 32 29 28 28 28 19 19 11 8 5 358 2 357 327 302 268 222 228 228 222 222
178 161 161 229 220 273 321 260 340 48 85 96 97 102 93 82 74 68 78 78 69 53 47 45 46 45 39 45 40 30 21 32 20 25 16 13 7 356 353 352 351 344 335 318 292 229 233 232 232
181 183 173 116 4 264 231 263 98 90 93 103 110 106 103 104 121 98 68 57 54 57 48 48 42 44 40 38 34 35 32 31 22 16 18 13 352 352 349 350 344 347 342 336 332 300 275 246 239
151 174 73 17 207 232 267 248 207 167 141 129 122 122 145 147 122 120 119 110 85 85 72 42 24 23 27 43 41 34 11 4 19 32 17 355 321 337 339 340 346 344 341 338 338 318 301 279 265
75 255 258 149 165 196 248 261 175 148 153 143 155 173 183 177 168 157 127 104 89 68 82 101 102 45 17 28 19 6 356 355 349 351 349 350 334 326 322 318 323 331 328 331 331 316 301 291 280
195 227 181 162 242 239 186 266 139 142 148 154 194 208 186 176 158 138 128 131 128 127 112 150 160 203 214 75 40 327 302 320 321 330 325 333 326 320 322 325 308 285 290 301 308 306 297 277 283